Regional Weather Roundup
Issued by NWS

Home | Current Version | Previous Version | Graphics & Text | Print | Product List | Glossary On
Versions: 1 2 3 4 5 6 7 8 9 10 11 12 13 14 15 16 17 18 19 20 21 22 23 24 25 26 27 28 29 30 31 32 33 34 35 36 37 38 39 40 41 42 43 44 45 46 47 48 49 50
000
ASUS43 KFSD 171902
RWRSD

WEATHER ROUNDUP FOR SOUTH DAKOTA
NATIONAL WEATHER SERVICE SIOUX FALLS SD
200 PM CDT FRI APR 17 2015

NOTE: "FAIR" INDICATES FEW OR NO CLOUDS BELOW 12,000 FEET WITH NO
SIGNIFICANT WEATHER AND/OR OBSTRUCTIONS TO VISIBILITY.


SDZ001>005-009-010-012>017-172000-
NORTHWEST AND NORTH CENTRAL SOUTH DAKOTA

CITY           SKY/WX    TMP DP  RH WIND       PRES   REMARKS
FAITH            N/A     63  18  17 CALM      30.16F
MOBRIDGE       SUNNY     67  22  18 VRB6      30.13F
$$

SDZ012>016-024>037-041>051-057-063-072>074-172000-
SOUTHWEST AND SOUTH CENTRAL SOUTH DAKOTA

CITY           SKY/WX    TMP DP  RH WIND       PRES   REMARKS
RAPID CTY ARPT CLOUDY    58  33  39 NE6       30.18F
PIERRE         MOSUNNY   68  31  25 VRB3      30.12F
CUSTER         CLOUDY    45  30  55 NE14      30.18F
PHILIP         CLOUDY    66  31  27 E9        30.14F
PINE RIDGE     LGT RAIN  49  43  80 N8        30.15F
WINNER         FAIR      69  40  34 NE13G21   30.11F
$$

SDZ004>011-016>023-039-040-172000-
NORTHEAST SOUTH DAKOTA

CITY           SKY/WX    TMP DP  RH WIND       PRES   REMARKS
ABERDEEN       SUNNY     71  18  13 VRB6      30.12F
WATERTOWN      SUNNY     68  20  16 W3        30.12F
BROOKINGS      SUNNY     70  30  23 NW7       30.10F
SISSETON         N/A     69  18  14 CALM      30.09F
$$

SDZ017-020-022-023-036>040-048>070-172000-
SOUTHEAST SOUTH DAKOTA

CITY           SKY/WX    TMP DP  RH WIND       PRES   REMARKS
SIOUX FALLS    PTSUNNY   75  44  33 VRB3      30.08F
HURON          SUNNY     72  28  19 N8        30.11F
MITCHELL       MOSUNNY   74  39  28 MISG      30.09F
YANKTON        PTSUNNY   70  46  43 CALM      30.07F
$$

ABBREVIATIONS USED IN REMARKS
   TC - TEMPERATURE IN CELSIUS
  WCI - WIND CHILL INDEX
   HX - HEAT INDEX
  VSB - VISIBILITY




USA.gov is the U.S. government's official web portal to all federal, state and local government web resources and services.